Temperature
8 7 7 8 9 8 8 8 8 9 11 10 10 10 11 12 12 12 12 12 13 13 14 14 14 14 13 13 13 13 13 13 13 13 13 12 12 12 12 12 12 12 12 12
8 7 9 10 9 9 8 8 8 9 10 10 10 10 11 12 12 12 12 12 12 12 13 14 13 13 13 13 13 12 12 12 12 12 12 13 13 13 13 12 12 12 12 12
7 9 10 9 9 8 8 8 8 9 9 10 9 9 11 12 12 12 12 12 12 12 12 13 13 12 12 12 12 12 12 12 12 12 12 12 12 12 12 12 12 12 12 12
8 9 9 9 8 8 7 9 9 9 8 8 9 8 10 11 12 12 12 12 12 12 12 12 12 12 12 12 12 12 12 12 12 12 12 12 12 12 12 12 12 12 12 12
7 9 8 8 8 8 8 9 8 8 7 7 8 8 9 11 11 11 11 11 11 11 12 11 11 11 11 11 11 11 11 11 11 12 12 12 12 12 12 12 12 12 12 12
8 9 9 8 9 9 9 8 8 8 7 7 8 8 9 10 10 10 11 11 11 11 11 11 11 11 11 11 11 11 11 11 11 11 12 12 12 12 12 12 12 12 12 12
7 8 9 8 7 8 8 6 5 6 6 7 10 9 9 11 11 11 10 11 10 10 11 11 10 10 10 10 10 10 11 11 11 11 12 12 12 12 12 12 12 12 12 12
5 6 8 8 7 7 7 6 5 5 6 7 9 9 9 11 11 11 11 10 10 10 10 10 10 10 10 10 10 10 10 11 11 11 11 12 12 12 12 12 12 12 12 12
5 5 8 8 8 8 6 6 7 6 6 6 8 9 10 11 10 10 10 10 10 9 10 10 9 9 9 9 10 10 10 10 10 11 11 12 12 12 12 12 12 12 12 12
5 4 6 8 8 7 7 6 6 5 5 6 7 8 9 9 9 9 9 9 9 9 9 9 9 9 9 9 9 9 10 10 10 10 11 11 12 12 12 12 12 12 12 11
5 3 5 6 6 6 6 6 6 5 6 5 6 7 9 9 9 9 9 9 9 9 9 9 9 9 9 9 9 9 9 9 10 10 10 11 11 11 12 12 12 12 11 11
4 4 3 5 7 7 6 6 5 4 4 5 5 6 9 9 9 9 9 9 9 8 8 8 8 8 8 8 8 8 9 9 9 10 10 10 11 11 11 11 12 11 11 11
4 3 2 4 5 6 5 6 5 4 4 4 5 6 8 8 8 9 9 8 8 8 8 8 8 8 8 8 8 8 8 9 9 9 10 10 10 11 11 11 11 11 11 11
5 3 3 3 4 4 4 4 5 4 3 4 5 6 7 7 7 7 8 8 8 8 7 7 7 7 7 7 7 8 8 8 8 8 9 10 10 10 11 11 11 11 11 11
3 2 3 3 5 5 4 4 4 4 4 4 5 5 6 6 6 7 8 8 8 7 7 7 6 6 6 7 7 7 7 7 8 8 8 9 10 10 10 10 10 11 11 11
2 2 2 3 4 5 4 5 5 5 5 5 5 5 6 6 7 7 7 7 7 7 6 6 6 6 6 6 6 6 6 7 7 7 8 8 9 9 10 10 10 10 10 10
1 1 2 2 4 4 3 5 5 5 5 5 5 5 6 6 7 6 6 6 6 6 6 5 5 5 5 5 5 5 6 6 6 7 7 8 8 9 9 9 9 10 10 10
1 1 1 2 2 1 4 6 6 6 6 6 5 6 6 6 6 6 6 6 5 5 5 5 4 4 4 4 4 5 5 5 6 6 7 7 8 8 8 9 9 10 10 10
2 1 1 1 2 2 5 6 5 5 4 5 5 5 5 6 6 5 6 5 5 4 4 4 4 4 4 4 4 4 4 5 5 5 6 6 7 8 8 8 9 9 9 9
2 1 1 1 1 2 4 5 5 5 3 4 5 4 4 5 3 4 5 5 4 4 4 3 3 3 3 3 3 3 3 4 4 5 5 6 6 7 7 8 8 9 9 9
1 1 1 1 1 2 4 5 5 2 2 4 5 4 4 4 3 4 4 4 4 3 3 3 3 3 3 3 3 3 3 3 4 4 5 5 6 6 7 7 8 8 8 9
1 0 0 1 1 2 4 4 3 3 4 5 4 4 4 4 4 4 3 3 3 3 3 2 2 2 2 2 2 2 3 3 3 4 4 5 5 6 6 7 7 8 8 8
2 2 2 2 2 4 5 4 4 4 4 4 4 4 3 3 3 3 3 3 3 2 2 2 2 2 2 2 2 2 2 2 3 3 4 4 5 5 6 6 7 7 7 7
3 3 2 2 3 4 4 5 4 4 4 3 3 3 3 3 2 2 2 2 2 2 1 1 1 1 1 1 1 2 2 2 2 3 3 3 4 5 5 6 6 6 6 7
3 2 2 1 3 3 4 4 4 4 3 3 3 2 2 2 2 2 2 2 1 1 1 1 1 1 1 1 1 1 1 2 2 2 3 3 4 4 5 5 5 5 6 6
2 2 2 2 3 3 3 4 3 3 3 2 2 2 1 1 1 1 1 1 1 0 0 0 0 0 0 0 1 1 1 1 1 2 2 2 3 3 4 4 5 5 5 5
Wind_Speed
4 5 7 7 8 10 12 13 15 14 12 11 13 16 16 12 10 9 9 10 11 11 10 8 7 7 7 8 9 10 11 11 10 8 9 9 9 8 7 7 12 14 14 14
4 8 9 8 8 10 12 13 14 12 10 10 13 17 15 12 10 9 9 9 10 9 8 6 5 6 8 8 10 10 12 12 11 9 9 7 8 8 7 7 10 14 14 14
8 8 8 8 9 11 12 11 11 13 13 9 11 11 10 9 9 8 7 7 6 7 6 5 5 5 6 7 9 10 10 12 12 10 7 7 6 6 7 8 9 11 14 14
7 7 8 9 10 10 11 9 12 13 11 6 5 7 9 8 8 6 4 4 4 5 4 3 3 5 6 7 6 8 9 11 12 11 10 11 10 9 8 9 9 11 13 13
7 7 8 10 11 10 10 11 12 13 12 10 8 6 6 5 5 2 2 3 4 4 3 3 4 3 4 6 5 5 7 9 11 12 12 12 10 8 7 9 11 12 12 13
13 10 7 7 9 9 8 8 11 10 7 6 7 5 4 2 2 1 2 2 4 3 2 2 2 1 2 3 4 5 6 9 10 11 12 12 12 11 12 11 11 12 10 11
8 8 5 4 6 5 4 4 4 2 3 5 4 4 4 1 1 1 2 2 2 3 1 1 1 1 2 2 3 5 6 7 10 11 12 12 12 13 14 13 12 12 11 10
5 6 2 1 3 3 5 4 3 3 3 4 4 4 2 1 2 3 3 4 4 5 3 2 1 2 2 2 2 4 6 6 8 10 12 12 12 10 11 12 11 13 12 12
4 6 4 4 5 4 3 4 4 5 6 5 5 4 4 1 3 4 4 4 4 5 4 3 2 2 2 2 3 4 5 6 8 8 9 11 12 11 11 11 10 11 11 12
3 7 8 6 3 5 6 4 3 3 3 4 5 5 3 1 3 4 4 4 4 4 4 4 3 2 2 1 2 4 4 5 6 7 7 8 10 12 11 10 11 11 13 13
3 5 6 4 4 5 4 4 4 4 4 4 4 3 2 3 4 4 4 4 5 6 5 5 4 4 3 2 2 4 4 3 4 5 6 6 7 10 11 10 11 12 11 13
4 4 6 7 6 6 6 6 4 4 5 4 5 5 2 2 3 5 5 4 5 5 5 5 5 4 4 3 3 3 3 3 3 4 5 5 6 8 10 10 11 12 12 12
2 3 5 4 3 2 4 5 5 5 5 6 7 6 1 3 4 5 6 5 5 5 5 5 5 5 4 4 3 3 3 4 4 4 4 5 5 6 9 9 10 11 11 12
4 5 7 9 6 3 7 9 8 7 7 8 10 12 9 7 7 7 6 6 4 4 4 4 5 5 4 5 5 4 4 4 4 4 4 5 6 6 7 8 8 9 10 11
4 6 9 14 15 13 14 15 13 13 13 12 14 15 13 9 9 8 7 6 5 5 5 5 5 5 5 5 5 6 5 4 4 4 3 4 4 5 5 6 8 9 8 9
4 6 7 12 13 14 18 17 16 17 16 17 17 19 13 9 8 8 6 5 5 5 6 6 6 6 5 5 6 6 6 6 5 5 4 3 3 3 4 5 7 8 8 8
5 5 5 8 9 10 12 13 15 14 13 13 15 14 9 8 7 6 4 4 4 4 5 5 5 5 5 5 5 6 6 6 6 5 4 3 2 2 3 5 6 8 8 8
7 6 5 6 5 10 8 4 7 10 12 11 11 9 8 7 6 4 2 2 3 4 5 5 4 5 5 4 4 5 5 5 6 6 5 4 3 2 3 4 6 7 7 8
11 8 5 4 7 10 8 6 6 7 8 6 8 7 6 6 5 4 3 2 2 4 4 4 4 4 4 4 4 5 5 5 5 6 5 5 4 3 3 4 5 6 6 7
9 9 7 6 6 7 4 0 1 0 6 4 4 5 5 4 4 4 4 3 3 3 3 4 4 4 4 4 3 4 5 5 5 6 6 5 4 4 4 4 4 4 5 6
6 7 11 12 9 8 5 2 4 3 6 1 1 3 4 4 4 4 4 4 4 4 4 4 5 4 4 4 3 4 5 5 5 6 6 6 5 4 4 4 4 4 4 5
9 7 8 8 9 10 3 4 5 6 2 2 3 3 5 5 5 5 5 4 4 4 4 4 4 4 4 4 3 4 5 5 6 6 6 6 5 4 3 3 3 4 4 5
10 10 6 9 9 5 3 5 5 4 4 5 4 5 6 6 6 6 6 4 4 4 3 3 4 5 5 4 3 4 5 5 6 6 6 6 6 4 3 3 4 4 4 4
6 8 7 7 9 8 7 7 6 5 6 6 6 6 6 7 7 7 6 5 4 4 4 3 4 5 5 5 4 4 4 5 6 6 6 6 5 4 3 2 3 4 4 4
7 5 8 11 10 9 8 8 8 7 6 6 6 6 7 7 8 8 6 5 5 4 4 4 4 5 5 5 5 5 4 4 5 6 6 6 4 4 2 2 3 4 4 6
9 10 10 10 6 6 7 6 6 7 6 6 7 7 7 7 7 7 6 5 4 4 4 4 5 5 5 5 5 5 4 4 5 6 6 4 4 3 1 1 2 2 3 5
Wind_Direction
216 242 256 261 260 276 289 281 282 284 284 279 275 277 277 271 265 261 258 261 257 259 247 232 217 201 203 199 193 197 196 191 179 178 176 173 175 169 170 175 169 167 166 166
268 256 272 277 282 282 283 281 283 291 294 291 277 276 273 259 250 249 252 254 255 262 257 225 212 200 201 200 197 199 195 190 185 185 181 174 168 172 171 172 175 171 168 167
270 277 297 287 283 287 282 279 287 294 303 278 275 273 261 255 251 243 247 248 255 261 258 239 211 201 199 205 201 203 196 191 188 181 174 166 167 169 173 177 182 176 170 169
279 279 292 289 281 290 286 289 297 297 299 284 271 289 275 259 253 238 248 258 267 271 259 261 238 209 204 204 208 203 197 197 190 181 179 178 183 187 184 176 179 179 175 172
277 290 292 282 276 282 281 303 297 286 281 279 263 262 271 249 257 259 281 286 275 264 243 245 251 232 221 198 194 208 202 199 189 186 186 185 191 190 177 173 178 184 181 180
266 271 279 283 287 281 295 308 291 270 261 258 244 243 273 245 247 290 296 324 312 273 242 236 262 260 248 202 192 205 205 200 196 193 191 192 193 190 181 178 184 185 182 183
291 263 245 257 288 283 303 324 315 294 235 246 275 267 264 258 85 39 8 352 335 337 314 233 257 243 258 231 209 209 211 208 201 201 200 199 198 194 190 183 186 185 182 183
301 294 274 247 256 276 269 255 265 290 275 291 285 249 257 128 84 48 37 27 17 3 359 353 285 256 235 245 243 230 220 217 209 205 209 205 199 197 194 189 187 190 186 184
290 284 294 284 265 247 271 252 268 278 278 271 247 240 242 84 47 32 22 27 13 354 355 350 342 316 258 232 238 247 236 227 218 210 214 209 202 199 196 191 191 192 185 182
273 286 286 287 268 234 241 274 299 270 281 271 262 259 270 38 13 10 14 8 2 357 358 352 339 323 317 275 257 257 247 240 230 218 215 219 208 203 197 193 196 195 188 181
243 264 286 276 226 237 231 240 244 258 257 271 280 274 334 28 29 21 19 1 356 359 359 356 347 334 330 334 303 266 249 252 245 237 227 222 219 208 200 197 199 196 190 184
236 252 270 260 249 240 242 242 234 249 266 259 270 273 316 23 26 7 357 352 353 350 346 346 346 344 341 343 326 306 289 268 260 252 247 226 226 211 203 203 200 196 193 189
236 239 286 285 234 247 260 255 254 263 271 264 263 262 273 341 338 344 346 343 345 341 341 342 344 349 343 333 325 315 308 313 297 264 242 229 220 211 206 208 205 196 193 192
236 227 228 250 265 286 272 270 260 248 254 262 255 266 281 299 307 314 319 326 328 326 329 333 334 339 343 338 331 327 328 328 310 291 250 237 218 212 212 211 206 197 194 194
231 251 252 259 268 272 267 266 258 248 247 256 265 270 277 290 294 303 309 315 326 331 335 334 336 337 343 347 343 341 335 335 319 303 286 258 236 218 210 213 206 197 195 195
230 262 276 270 265 266 267 263 258 256 255 256 264 270 274 280 285 292 299 310 320 321 328 336 338 337 338 339 339 339 339 339 335 322 305 292 261 228 215 219 201 193 195 192
223 246 269 272 282 286 267 251 246 245 245 249 257 264 280 284 285 293 300 309 313 317 326 331 332 329 325 327 330 329 329 331 332 318 309 310 299 266 232 221 202 194 196 193
225 237 252 273 283 253 248 236 240 249 252 249 259 270 277 280 286 288 297 306 317 327 325 322 322 319 317 323 326 322 322 323 323 317 308 311 293 269 260 222 208 202 195 195
217 220 242 250 260 270 267 252 240 249 265 254 265 279 293 295 295 296 312 307 302 305 308 311 309 305 310 317 322 322 317 315 316 317 312 306 295 278 273 241 215 206 196 197
212 212 229 238 249 255 261 57 103 287 275 260 257 275 293 301 279 283 321 331 324 326 326 323 317 312 314 316 325 320 312 313 314 311 306 302 299 277 263 249 229 214 201 198
198 212 224 236 249 262 265 178 122 192 250 301 302 288 287 274 254 279 303 312 315 315 314 320 315 310 308 313 322 313 314 314 311 308 305 302 294 275 264 251 237 212 198 191
195 203 211 218 234 249 209 168 197 226 273 297 277 272 279 284 288 290 288 290 298 306 313 322 320 311 308 307 310 309 308 311 313 311 308 299 294 282 272 239 232 213 193 188
204 206 208 210 226 247 206 221 227 234 263 271 276 278 276 279 283 283 276 273 277 288 296 308 307 310 310 310 310 303 304 312 315 314 311 305 299 290 266 231 222 207 193 189
228 214 235 254 251 256 259 260 259 251 256 267 271 275 273 274 278 276 270 268 270 275 280 284 291 298 303 308 309 295 300 310 312 309 306 302 297 293 268 238 221 207 198 194
238 214 236 252 261 273 262 261 266 269 270 274 275 273 271 272 274 273 274 271 267 271 274 274 273 279 287 297 297 295 301 310 307 303 302 301 297 292 265 255 236 219 211 201
232 231 234 246 247 253 266 265 264 268 271 272 272 274 272 267 272 273 274 274 274 271 268 270 270 273 282 289 290 291 294 294 298 299 299 298 297 289 265 253 287 249 211 200
Height
1458 1460 1456 1451 1450 1448 1445 1442 1437 1431 1426 1425 1422 1418 1412 1411 1411 1410 1409 1409 1409 1408 1408 1410 1412 1413 1416 1418 1420 1422 1425 1429 1432 1436 1439 1443 1446 1451 1456 1460 1463 1467 1472 1477
1456 1455 1449 1446 1445 1445 1443 1440 1434 1427 1424 1423 1419 1413 1407 1405 1405 1405 1404 1404 1404 1405 1404 1405 1406 1408 1410 1413 1415 1417 1420 1424 1427 1431 1434 1438 1443 1447 1451 1456 1460 1463 1467 1472
1455 1449 1445 1444 1443 1442 1439 1438 1432 1429 1423 1420 1418 1410 1402 1399 1398 1398 1399 1399 1400 1400 1400 1401 1402 1404 1405 1408 1411 1413 1415 1419 1422 1426 1430 1434 1439 1443 1446 1450 1454 1458 1462 1467
1449 1445 1444 1443 1441 1440 1438 1432 1430 1427 1429 1424 1418 1417 1401 1395 1394 1393 1395 1396 1397 1397 1397 1397 1399 1399 1401 1404 1407 1409 1411 1414 1417 1421 1425 1428 1432 1435 1439 1444 1449 1454 1458 1462
1448 1443 1443 1441 1439 1438 1435 1431 1430 1427 1426 1424 1415 1417 1402 1393 1393 1392 1393 1394 1395 1395 1395 1395 1396 1397 1398 1400 1402 1405 1407 1409 1412 1416 1419 1423 1427 1431 1435 1440 1445 1449 1454 1458
1445 1442 1441 1438 1436 1435 1433 1432 1427 1423 1423 1426 1411 1411 1403 1395 1393 1393 1392 1392 1392 1392 1393 1393 1394 1395 1396 1397 1399 1401 1403 1405 1408 1411 1414 1418 1422 1425 1429 1434 1439 1444 1448 1453
1443 1437 1436 1437 1437 1434 1435 1439 1438 1432 1428 1420 1401 1402 1400 1391 1390 1391 1391 1391 1391 1391 1391 1391 1391 1392 1393 1394 1395 1397 1399 1401 1403 1406 1409 1412 1416 1420 1424 1428 1433 1438 1442 1446
1450 1441 1433 1434 1436 1437 1436 1438 1443 1440 1429 1415 1404 1404 1397 1389 1389 1390 1390 1391 1390 1390 1390 1390 1390 1390 1391 1391 1392 1393 1395 1397 1399 1401 1404 1408 1411 1414 1418 1423 1427 1433 1436 1441
1452 1444 1433 1432 1432 1434 1435 1434 1431 1434 1427 1424 1410 1398 1392 1387 1388 1389 1390 1390 1390 1390 1390 1389 1389 1389 1389 1389 1389 1390 1391 1393 1395 1397 1400 1403 1406 1409 1413 1418 1423 1428 1431 1436
1451 1449 1437 1432 1431 1431 1432 1432 1434 1435 1434 1425 1408 1399 1396 1392 1391 1390 1390 1391 1391 1390 1390 1389 1388 1388 1388 1388 1388 1388 1388 1390 1391 1393 1396 1398 1401 1405 1409 1413 1418 1423 1426 1430
1450 1453 1441 1434 1432 1431 1431 1432 1432 1431 1427 1427 1417 1407 1391 1391 1391 1391 1391 1391 1391 1390 1389 1389 1388 1387 1387 1386 1385 1386 1386 1387 1388 1389 1391 1393 1396 1400 1404 1408 1413 1418 1421 1425
1449 1450 1445 1433 1425 1425 1426 1427 1429 1435 1430 1421 1419 1410 1392 1392 1392 1392 1392 1392 1391 1390 1389 1388 1387 1386 1385 1385 1384 1383 1383 1384 1384 1385 1387 1389 1392 1395 1399 1403 1408 1412 1416 1420
1448 1449 1447 1432 1429 1427 1426 1425 1426 1428 1427 1423 1419 1409 1393 1393 1393 1393 1393 1392 1391 1390 1389 1388 1386 1385 1384 1383 1383 1382 1381 1381 1381 1382 1383 1385 1387 1390 1394 1398 1402 1407 1410 1414
1444 1445 1444 1438 1428 1430 1430 1426 1425 1427 1426 1420 1411 1403 1396 1395 1394 1393 1392 1391 1390 1389 1388 1387 1385 1384 1383 1383 1382 1380 1379 1379 1379 1379 1379 1381 1383 1386 1389 1393 1397 1401 1405 1409
1441 1440 1435 1429 1425 1424 1423 1421 1419 1419 1416 1415 1404 1399 1394 1394 1393 1392 1390 1389 1388 1388 1387 1386 1384 1383 1381 1381 1380 1378 1377 1376 1376 1376 1376 1377 1380 1382 1384 1388 1392 1395 1399 1403
1438 1437 1432 1426 1420 1418 1414 1410 1409 1408 1406 1404 1400 1395 1391 1391 1390 1389 1388 1387 1387 1387 1386 1385 1383 1381 1380 1379 1378 1376 1374 1374 1373 1372 1373 1375 1376 1378 1380 1383 1386 1390 1394 1398
1436 1436 1432 1424 1416 1414 1410 1399 1398 1397 1395 1396 1394 1390 1388 1387 1387 1386 1386 1385 1385 1385 1384 1383 1381 1380 1379 1377 1376 1374 1373 1372 1371 1371 1371 1371 1373 1374 1377 1379 1382 1385 1388 1392
1431 1432 1429 1424 1421 1422 1399 1388 1388 1388 1387 1387 1385 1384 1384 1384 1383 1383 1383 1383 1383 1383 1382 1381 1379 1378 1377 1375 1374 1372 1371 1370 1369 1368 1368 1368 1369 1371 1373 1375 1377 1380 1383 1387
1421 1426 1425 1423 1419 1405 1391 1385 1385 1387 1386 1383 1382 1381 1381 1381 1380 1381 1381 1381 1381 1381 1380 1379 1377 1376 1374 1373 1372 1370 1369 1368 1367 1366 1366 1366 1366 1367 1368 1370 1373 1375 1378 1381
1416 1419 1423 1419 1416 1406 1388 1383 1381 1385 1388 1380 1379 1380 1380 1379 1382 1381 1380 1379 1379 1378 1377 1376 1375 1373 1372 1370 1369 1368 1367 1366 1365 1364 1364 1363 1363 1364 1365 1367 1369 1371 1374 1377
1416 1417 1417 1414 1410 1397 1385 1381 1382 1392 1388 1378 1377 1378 1378 1378 1379 1378 1377 1377 1376 1376 1375 1373 1372 1370 1369 1368 1367 1366 1364 1363 1362 1361 1361 1361 1361 1361 1362 1363 1365 1367 1370 1372
1406 1409 1408 1407 1406 1395 1380 1381 1383 1381 1377 1376 1376 1376 1376 1375 1374 1374 1374 1374 1373 1372 1371 1370 1369 1367 1366 1365 1364 1362 1361 1360 1359 1358 1357 1357 1357 1357 1358 1360 1361 1363 1365 1368
1393 1392 1391 1391 1385 1377 1375 1375 1374 1374 1374 1374 1374 1373 1373 1372 1371 1371 1370 1370 1369 1369 1368 1367 1365 1364 1363 1362 1361 1359 1358 1357 1356 1355 1354 1353 1353 1354 1354 1356 1357 1359 1361 1363
1382 1382 1383 1380 1374 1372 1372 1371 1372 1371 1370 1370 1370 1370 1369 1368 1367 1367 1366 1365 1365 1364 1364 1363 1362 1360 1359 1358 1357 1356 1355 1354 1352 1351 1350 1350 1350 1350 1351 1352 1353 1355 1357 1359
1376 1377 1377 1374 1370 1369 1367 1367 1367 1366 1366 1365 1365 1365 1364 1363 1362 1362 1361 1360 1360 1359 1359 1358 1357 1356 1355 1355 1354 1353 1351 1350 1349 1348 1347 1347 1347 1346 1347 1348 1350 1352 1354 1356
1368 1369 1370 1367 1364 1365 1363 1363 1362 1361 1361 1360 1360 1359 1359 1358 1357 1357 1356 1355 1355 1354 1354 1353 1353 1352 1351 1350 1349 1349 1348 1347 1346 1344 1344 1343 1343 1343 1344 1345 1347 1348 1351 1353